Regional Weather Roundup
Issued by NWS

Home | Current Version | Previous Version | Graphics & Text | Print | Product List | Glossary Off
Versions: 1 2 3 4 5 6 7 8 9 10 11 12 13 14 15 16 17 18 19 20 21 22 23 24 25 26 27 28 29 30 31 32 33 34 35 36 37 38 39 40 41 42 43 44 45 46 47 48 49

972
ASUS45 KBOU 010407
RWRCO

WEATHER ROUNDUP FOR COLORADO
NATIONAL WEATHER SERVICE DENVER/BOULDER CO
1000 PM MDT SAT APR 30 2016

NOTE: "FAIR" INDICATES FEW OR NO CLOUDS BELOW 12000 FEET WITH NO
SIGNIFICANT WEATHER AND/OR OBSTRUCTIONS TO VISIBILITY.

COZ001>005-013-030-031-010500-
...NORTHWEST COLORADO...

CITY           SKY/WX    TMP DP  RH WIND       PRES   REMARKS
CRAIG          FAIR      38  22  52 E9        30.09R
HAYDEN         FAIR      36  18  48 E14       30.08R
MEEKER         FAIR      40  25  55 NE13      30.03R
MOUNT WERNER   NOT AVBL
STEAMBOAT SPGS FAIR      34  19  53 NE9G29    30.09R WCI  27
WALDEN         FAIR      28  19  69 NE6       30.16R WCI  22
$$

COZ006>008-011-010500-
...WEST CENTRAL VALLEYS...

CITY           SKY/WX    TMP DP  RH WIND       PRES   REMARKS
GRAND JUNCTION CLOUDY    49  31  49 NW7       29.94R
MONTROSE       FAIR      43  30  60 S5        29.97R
EAGLE          CLOUDY    39  28  65 W5        30.08R
RIFLE          FAIR      44  37  76 CALM      29.99R
DELTA          NOT AVBL
NUCLA          NOT AVBL
$$

COZ017>023-064>068-010500-
...SOUTHWEST COLORADO...

CITY           SKY/WX    TMP DP  RH WIND       PRES   REMARKS
DURANGO        FAIR      37  31  78 CALM      29.91R
CORTEZ         FAIR      38  34  85 NE5       29.90R
PAGOSA SPRINGS FAIR      37  30  77 CALM      29.95S
TELLURIDE      FAIR      35  28  75 CALM      29.99S
WOLF CREEK PAS FOG       21  21 100 NE12      30.09R VSB 1/2 WCI   9
$$

COZ009-010-012-014-032>034-037-058>063-010500-
...CENTRAL COLORADO...

CITY           SKY/WX    TMP DP  RH WIND       PRES   REMARKS
ASPEN          CLOUDY    37  29  72 N3        30.01R
BUENA VISTA    CLOUDY    30  26  86 NW5       30.13R WCI  25
COPPER MTN     NOT AVBL
BERTHOUD PASS  SNOW      10   0  61 E14       30.11R VSB 1/4 WCI  -5
COTTONWOOD PAS LGT SNOW  27  23  86 SE5       30.12R WCI  21
GUNNISON       FAIR      37  25  60 E10       30.01R
KREMMLING      CLOUDY    34  27  75 N6        30.12R WCI  29
LEADVILLE      FLURRIES  21  21 100 S14       30.07R WCI   8
MONARCH PASS   CLOUDY    18  14  86 MISG      30.15R
SALIDA         CLOUDY    32  28  83 E7        30.20R WCI  26
SUNLIGHT       CLOUDY   N/A N/A N/A NE5       30.09S
WILKERSON PASS CLOUDY   N/A N/A N/A NE13G18   30.13R FOG
$$

COZ069>075-010500-
...SAN LUIS VALLEY/SANGRE DE CRISTO MOUNTAINS...

CITY           SKY/WX    TMP DP  RH WIND       PRES   REMARKS
ALAMOSA        MOCLDY    35  26  69 E5        30.01R WCI  31
LA VETA PASS   LGT SNOW  21  19  93 MISG      30.10R VSB 3/4
SAGUACHE       CLOUDY    36  28  75 S5        30.02R
$$

COZ035-036-038>040-010500-
...NORTHERN COLORADO FRONT RANGE...

CITY           SKY/WX    TMP DP  RH WIND       PRES   REMARKS
DENVER INTL AP LGT SNOW  33  30  88 N13       30.18R FOG     WCI  24
DMNS CITY PARK   N/A     35  32  91 N6G16     30.19S WCI  30
AURORA         FLURRIES  33  33 100 N13       30.18R WCI  23
FRONT RANGE AP NOT AVBL
ERIE MUNI ARPT CLOUDY    36  33  92 N12       30.20R
BOULDER MUN AP CLOUDY    36  32  87 N8        30.20R
CENTENNIAL     LGT SNOW  32  31  96 NW18      30.18R FOG     WCI  20
BROOMFIELD     CLOUDY    36  32  87 N13       30.19R
FORT COLLINS   FAIR      36  30  80 NW12      30.21R
LONGMONT       CLOUDY    38  33  81 N12       30.23R
$$

COZ041-046-047-076>085-087-088-010500-
...PIKES PEAK/PALMER DIVIDE AND SOUTHERN FOOTHILLS...

CITY           SKY/WX    TMP DP  RH WIND       PRES   REMARKS
COLO. SPRINGS  FLURRIES  33  27  78 NW14      30.15R WCI  23
A. F. ACADEMY  LGT SNOW  32  28  86 N15       30.14R FOG     WCI  22
SCHRIEVER AFB  NOT AVBL
ELLICOTT       NOT AVBL
FALCON         FLURRIES  31  26  83 N13G22    30.14R WCI  21
FORT CARSON    MOCLDY    35  28  74 N18G24    30.13R WCI  25
LIMON          CLOUDY    32  31  96 N31G40    30.10R WCI  17
MONUMENT HILL  LGT SNOW  28  27  93 N15G23    30.16R WCI  17
TRINIDAD       CLOUDY    34  32  92 CALM      30.16R
$$

COZ042>045-048>051-090-091-010500-
...NORTHEAST COLORADO...

CITY           SKY/WX    TMP DP  RH WIND       PRES   REMARKS
GREELEY ARPT   CLOUDY    37  32  81 N13       30.20R
AKRON          FLURRIES  33  30  88 N26       30.10R WCI  20
BURLINGTON     CLOUDY    35  32  88 NW22G30   30.03R WCI  23
WRAY           NOT AVBL
STERLING       CLOUDY    36  34  93 N18       30.10R
HOLYOKE        NOT AVBL
FORT MORGAN    CLOUDY    34  32  91 NW15G23   30.15R WCI  25
$$

COZ086-089-092>099-010500-
...SOUTHEAST COLORADO...

CITY           SKY/WX    TMP DP  RH WIND       PRES   REMARKS
PUEBLO         CLOUDY    41  29  62 NE8       30.14R
LA JUNTA       FAIR      38  31  76 N14       30.13R
LAMAR          CLOUDY    40  31  70 NW17G24   30.08R
SPRINGFIELD      N/A     34  30  85 NW14      30.08R WCI  25
$$




USA.gov is the U.S. government's official web portal to all federal, state and local government web resources and services.